Regional Weather Roundup
Issued by NWS

Home | Current Version | Previous Version | Graphics & Text | Print | Product List | Glossary On
Versions: 1 2 3 4 5 6 7 8 9 10 11 12 13 14 15 16 17 18 19 20 21 22 23 24 25 26 27 28 29 30 31 32 33 34 35 36 37 38 39 40 41 42 43 44 45 46 47 48 49 50
000
ASUS43 KMPX 302110
RWRMN
WEATHER ROUNDUP FOR MINNESOTA
NATIONAL WEATHER SERVICE TWIN CITIES/CHANHASSEN MN
400 PM CDT FRI SEP 30 2016


NOTE: "FAIR" INDICATES FEW OR NO CLOUDS BELOW 12,000 FEET WITH NO
SIGNIFICANT WEATHER AND/OR OBSTRUCTIONS TO VISIBILITY. N/A MEANS
CURRENT SKY AND/OR WEATHER CONDITIONS ARE NOT AVAILABLE.

MNZ060>063-068>070-302200-
   Twin Cities Metro

CITY           SKY/WX    TMP DP  RH WIND       PRES   REMARKS
TWIN CITIES    MOSUNNY   71  51  49 NE9       30.24F
ST PAUL        MOSUNNY   71  50  47 N10       30.24F
CRYSTAL        SUNNY     70  48  45 E12       30.23F
BLAINE         SUNNY     72  52  49 NE12      30.25F
LAKEVILLE      SUNNY     70  52  52 NE10      30.23F
EDEN PRAIRIE   SUNNY     71  51  49 NE7       30.23F
LAKEVILLE      SUNNY     70  52  52 NE10      30.23F
SOUTH ST PAUL  MOSUNNY   71  48  43 NE5       30.23F
LAKE ELMO      FAIR      70  50  49 NE6       30.24F
$$
MNZ001>005-007-008-013>017-022>024-027-028-302200-
   Northwest Minnesota

CITY           SKY/WX    TMP DP  RH WIND       PRES   REMARKS
BEMIDJI        MOSUNNY   60  52  76 SE10      30.30F
HALLOCK        MOSUNNY   68  54  60 SE13G18   30.22F
ROSEAU         CLOUDY    63  54  72 SE10      30.28F
WARROAD        CLOUDY    57  52  82 E10       30.31F
THIEF RVR FALL MOSUNNY   66  49  54 S10       30.25F
CROOKSTON      PTSUNNY   70  50  49 S12       30.23F
FOSSTON        CLOUDY    66  50  55 SE9       30.27S
DETROIT LAKES  CLOUDY    63  52  67 SE8       30.27F
MOORHEAD       CLOUDY    68  46  45 S14       30.23S
PARK RAPIDS    SUNNY     68  49  50 E10       30.27F
MAHNOMEN       FAIR      66  50  56 S12       30.25F
$$
MNZ006-009>011-018-025>026-302200-
   North Central Minnesota

CITY           SKY/WX    TMP DP  RH WIND       PRES   REMARKS
BAUDETTE       CLOUDY    56  51  84 SE9       30.32F
FLAG ISLAND    CLOUDY    54  50  87 SE15      30.31F
INTL FALLS     CLOUDY    57  51  80 SE5       30.34F
WASKISH        MOSUNNY   61  54  77 SE8       30.31F
BIG FORK       SUNNY     64  52  63 SE5       30.32F
GRAND RAPIDS   SUNNY     66  51  58 VRB5      30.33F
CRANE LAKE     SUNNY     64  52  63 NE5       30.36F
ORR            SUNNY     66  48  52 CALM      30.31F
COOK           SUNNY     68  48  49 E3        30.33F
WALKER         FAIR      58  51  78 E7        30.30F
$$
MNZ012-019>021-037-302200-
   Northeast Minnesota

CITY           SKY/WX    TMP DP  RH WIND       PRES   REMARKS
DULUTH         CLOUDY    56  52  86 E12       30.34F
ELY            SUNNY     66  45  45 E6        30.34F
HIBBING        SUNNY     66  47  50 E9        30.32F
EVELETH        SUNNY     67  45  45 SE5       30.34F
DULUTH HARBOR  CLOUDY    55  54  94 NE13      30.36F
TWO HARBORS    CLOUDY    59  54  82 E7        30.34F
SILVER BAY     CLOUDY    55  54  94 E6        30.35F
GRAND MARAIS     N/A     60  56  86 E5        30.37F
G MARAIS ARPRT SUNNY     63  50  63 SE7       30.39S
$$
MNZ029>031-032-039>041-046>048-054>057-064-302200-
   West Central Minnesota

CITY           SKY/WX    TMP DP  RH WIND       PRES   REMARKS
FERGUS FALLS   CLOUDY    66  52  59 SE12      30.26F
MORRIS         SUNNY     73  50  43 SE13      30.22F
ALEXANDRIA     SUNNY     68  51  54 E14       30.27F
ELBOW LAKE     FAIR      67  53  61 SE9G16    30.25F
WADENA         SUNNY     66  52  59 SE8       30.27F
GLENWOOD       SUNNY     70  50  49 E13       30.26F
BENSON         SUNNY     72  45  37 SE10G17   30.23F
ORTONVILLE     MOSUNNY   68  48  49 SE7G16    30.22F
MADISON        CLOUDY    72  48  43 SE12      30.22F
WILLMAR        FAIR      72  48  43 E13       30.25F
$$
MNZ033>034-036-042>043-049>051-058-059-302200-
   Central Minnesota

CITY           SKY/WX    TMP DP  RH WIND       PRES   REMARKS
ST CLOUD       SUNNY     70  48  45 E9        30.26F
SAUK CENTRE    FAIR      66  52  60 E8        30.26F
PAYNESVILLE    SUNNY     69  45  43 E10G17    30.26F
AITKIN         SUNNY     72  43  35 E7        30.28F
PINE RIVER     SUNNY     64  54  68 E6        30.32F
BRAINERD       SUNNY     66  50  56 VRB3      30.29F
STAPLES        CLOUDY    66  50  55 E3        30.28F
LONG PRAIRIE   FAIR      64  50  59 E3        30.28F
LITTLE FALLS   SUNNY     66  50  55 NE6       30.27F
LITCHFIELD     SUNNY     72  52  49 NE12      30.25F
BUFFALO        SUNNY     69  48  46 NE12      30.26F
MAPLE LAKE     SUNNY     70  52  52 E12       30.26F
HUTCHINSON     MOSUNNY   71  47  41 NE8       30.25F
$$
MNZ037-044-045-052-053-302200-
   East Central Minnesota

CITY           SKY/WX    TMP DP  RH WIND       PRES   REMARKS
PRINCETON      SUNNY     72  52  49 E7        30.26F
MORA           SUNNY     68  50  52 NE3       30.29F
CAMBRIDGE      SUNNY     72  54  53 NE7       30.24F
MOOSE LAKE     SUNNY     61  50  67 NE6       30.30F
HINCKLEY       FAIR      68  54  60 NE10      30.28F
CLOQUET        MOSUNNY   55  50  82 E10       30.34F
MCGREGOR       SUNNY     68  50  52 E9        30.30F
$$
MNZ071>073-080-081-089-090-097-098-302200-
   Southwest Minnesota

CITY           SKY/WX    TMP DP  RH WIND       PRES   REMARKS
MONTEVIDEO     SUNNY     73  48  40 SE10G17   30.23F
GRANITE FALLS  SUNNY     73  46  38 E7        30.23F
CANBY          MOSUNNY   72  47  40 SE14      30.22F
MARSHALL       SUNNY     71  47  42 E12       30.21F
REDWOOD FALLS  SUNNY     72  43  35 E10       30.22F
OLIVIA         SUNNY     70  45  40 E7        30.22F
PIPESTONE      CLOUDY    72  37  28 SE10      30.21F
WINDOM         SUNNY     72  45  37 E13       30.22F
WORTHINGTON    SUNNY     70  44  39 E10G16    30.22F
JACKSON        SUNNY     72  45  37 NE8       30.22F
TRACY          SUNNY     72  47  40 E10       30.23F
SLAYTON        SUNNY     72  43  35 E12       30.23F
$$
MNZ065>067-074>077-082>085-091>093-302200-
   South Central Minnesota

CITY           SKY/WX    TMP DP  RH WIND       PRES   REMARKS
MANKATO        MOSUNNY   69  53  56 NE10      30.22F
NEW ULM        SUNNY     70  46  43 E7        30.22F
ST JAMES       SUNNY     72  48  43 NE5       30.23F
FAIRMONT       SUNNY     73  49  42 NE9       30.21F
GLENCOE        SUNNY     70  53  55 NE6       30.24F
FARIBAULT      PTSUNNY   73  54  49 N3        30.22F
OWATONNA       MOSUNNY   72  52  49 NE7       30.22F
WASECA         MOSUNNY   72  52  49 NE7       30.23F
ALBERT LEA     CLOUDY    70  52  52 NE8       30.21F
$$
MNZ078>079-086>088-094>096-302200-
   Southeast Minnesota

CITY           SKY/WX    TMP DP  RH WIND       PRES   REMARKS
ROCHESTER      MOSUNNY   70  55  59 NE9       30.21F
RED WING       SUNNY     73  48  40 NE6       30.21F
STANTON        SUNNY     74  47  39 NE6       30.21F
DODGE CENTER   MOSUNNY   72  50  46 NE12      30.22F
WINONA         CLOUDY    70  54  56 SE7       30.20F HAZE
AUSTIN         MOSUNNY   70  54  56 NE9G16    30.20F
PRESTON        CLOUDY    65  54  66 E12       30.21F
$$
ABBREVIATIONS USED IN REMARKS
   TC - TEMPERATURES IN CELSIUS
  WCI - WIND CHILL INDEX
   HX - HEAT INDEX
  VSB - VISIBILITY
$$




USA.gov is the U.S. government's official web portal to all federal, state and local government web resources and services.